Boulder Muni, Boulder, CO, CO

10:51 PM MST on November 17, 2017 (GMT -0700)
Boulder Muni, Boulder, CO

Weather History for KBDU - January, 2014

Change the Weather History Date:

Thursday, January 23, 2014

  Actual Average Record
Temperature  
Mean Temperature 18 °F -  
Max Temperature 26 °F - 64 °F (2016)
Min Temperature 10 °F - 10 °F (2014)
Degree Days  
Heating Degree Days 47    
Month to date heating degree days  
Cooling Degree Days 0    
Month to date cooling degree days  
Moisture  
Dew Point 12 °F    
Average Humidity 81    
Maximum Humidity 100    
Minimum Humidity 55    
Precipitation  
Precipitation 0.03 in - 0.03 in (2014)
Sea Level Pressure  
Sea Level Pressure 30.38 in    
Wind  
Wind Speed 5 mph (East)    
Max Wind Speed 14 mph    
Max Gust Speed 18 mph    
Visibility 7 miles    
Events Snow    
T = Trace of Precipitation, MM = Missing Value Source: NWS Daily Summary

Daily Weather History Graph

Daily Weather History Graph

Search for Another Location

Airport or City:

Trip Planner

Search our weather history database for the weather conditions in past years. The results will help you decide how hot, cold, wet, or windy it might be!

Date:

Astronomy

Jan. 23, 2014 Rise Set
Actual Time 7:16 AM MST 5:09 PM MST
Civil Twilight 6:47 AM MST 5:38 PM MST
Nautical Twilight 6:14 AM MST 6:11 PM MST
Astronomical Twilight 5:42 AM MST 6:43 PM MST
Moon No Moon Rise 10:53 AM MST (1/23)
Length of Visible Light 10h 51m
Length of Day
9h 52m
Waning Gibbous, 54% of the Moon is Illuminated
Jan 23
Waning Gibbous
Jan 23
Last Quarter
Jan 30
New
Feb 6
First Quarter
Feb 14
Full

Hourly Weather History & Observations

Time (MST) Temp. Windchill Dew Point Humidity Pressure Visibility Wind Dir Wind Speed Gust Speed Precip Events Conditions
12:16 AM 24.8 °F 12.9 °F 23.0 °F 93% 30.26 in 1.0 mi ENE 13.8 mph 18.4 mph 0.01 in Snow Snow
12:36 AM 21.2 °F 11.7 °F 21.2 °F 100% 30.26 in 0.8 mi ENE 8.1 mph 16.1 mph 0.01 in Snow Snow
12:56 AM 21.2 °F 12.6 °F 19.4 °F 93% 30.28 in 1.2 mi North 6.9 mph - 0.01 in Snow Light Snow
1:16 AM 19.4 °F 9.5 °F 17.6 °F 93% 30.30 in 1.5 mi NNE 8.1 mph - N/A Snow Light Snow
1:36 AM 17.6 °F 8.2 °F 17.6 °F 100% 30.30 in 3.0 mi NNE 6.9 mph - N/A Snow Light Snow
1:56 AM 17.6 °F 8.2 °F 15.8 °F 93% 30.31 in 2.5 mi NE 6.9 mph - N/A Snow Light Snow
2:16 AM 15.8 °F 8.6 °F 14.0 °F 93% 30.32 in 2.0 mi NE 4.6 mph - 0.01 in Snow Light Snow
2:36 AM 15.8 °F 4.2 °F 14.0 °F 93% 30.33 in 3.0 mi NNE 9.2 mph - 0.01 in Snow Light Snow
2:56 AM 14.0 °F 2.0 °F 12.2 °F 93% 30.35 in 2.5 mi NNE 9.2 mph - 0.01 in Snow Light Snow
3:16 AM 14.0 °F 2.0 °F 12.2 °F 93% 30.37 in 4.0 mi North 9.2 mph - N/A Snow Light Snow
3:36 AM 14.0 °F - 10.4 °F 86% 30.35 in 3.0 mi Calm Calm - N/A Snow Light Snow
3:56 AM 14.0 °F - 10.4 °F 86% 30.36 in 2.5 mi Calm Calm - 0.01 in Snow Light Snow
4:16 AM 12.2 °F 6.1 °F 10.4 °F 92% 30.37 in 2.0 mi ENE 3.5 mph - N/A Snow Light Snow
4:36 AM 12.2 °F 2.9 °F 10.4 °F 92% 30.37 in 2.5 mi NE 5.8 mph - N/A Snow Light Snow
4:56 AM 12.2 °F 2.9 °F 10.4 °F 92% 30.38 in 3.0 mi NE 5.8 mph - N/A Snow Light Snow
5:16 AM 12.2 °F - 8.6 °F 85% 30.39 in 2.5 mi Calm Calm - N/A Snow Light Snow
5:36 AM 12.2 °F 6.1 °F 8.6 °F 85% 30.40 in 1.2 mi ENE 3.5 mph - N/A Snow Light Snow
5:56 AM 10.4 °F 0.8 °F 8.6 °F 92% 30.42 in 10.0 mi NE 5.8 mph - N/A Snow Light Snow
6:16 AM 10.4 °F 2.2 °F 8.6 °F 92% 30.44 in 5.0 mi NNE 4.6 mph - N/A Snow Light Snow
6:36 AM 10.4 °F 2.2 °F 8.6 °F 92% 30.45 in 10.0 mi NE 4.6 mph - N/A Snow Light Snow
6:56 AM 10.4 °F 2.2 °F 8.6 °F 92% 30.47 in 10.0 mi NE 4.6 mph - N/A Snow Light Snow
7:16 AM 10.4 °F 2.2 °F 8.6 °F 92% 30.47 in 5.0 mi ENE 4.6 mph - N/A Snow Light Snow
7:36 AM 10.4 °F 4.0 °F 8.6 °F 92% 30.48 in 4.0 mi NE 3.5 mph - N/A Snow Light Snow
7:56 AM 10.4 °F 4.0 °F 8.6 °F 92% 30.48 in 1.8 mi ENE 3.5 mph - N/A Snow Light Snow
8:16 AM 10.4 °F - 8.6 °F 92% 30.47 in 2.5 mi Calm Calm - N/A Snow Light Snow
8:36 AM 10.4 °F 4.0 °F 8.6 °F 92% 30.47 in 1.8 mi SSE 3.5 mph - N/A Snow Light Snow
8:56 AM 10.4 °F 2.2 °F 6.8 °F 85% 30.47 in 5.0 mi SE 4.6 mph - N/A Snow Light Snow
9:16 AM 12.2 °F 6.1 °F 6.8 °F 79% 30.48 in 7.0 mi South 3.5 mph - N/A Snow Light Snow
9:36 AM 14.0 °F 8.2 °F 6.8 °F 73% 30.48 in 7.0 mi SSE 3.5 mph - N/A Snow Light Snow
9:56 AM 14.0 °F 8.2 °F 6.8 °F 73% 30.48 in 10.0 mi SSE 3.5 mph - N/A   Scattered Clouds
10:16 AM 15.8 °F 10.2 °F 8.6 °F 73% 30.48 in 10.0 mi SE 3.5 mph - N/A   Scattered Clouds
10:36 AM 17.6 °F 10.7 °F 8.6 °F 68% 30.50 in 10.0 mi South 4.6 mph - N/A   Clear
10:56 AM 17.6 °F 12.3 °F 6.8 °F 63% 30.49 in 10.0 mi South 3.5 mph - N/A   Clear
11:16 AM 17.6 °F - 8.6 °F 68% 30.49 in 10.0 mi Calm Calm - N/A   Clear
11:36 AM 17.6 °F - 8.6 °F 68% 30.48 in 10.0 mi Calm Calm - N/A   Clear
11:56 AM 19.4 °F - 8.6 °F 63% 30.47 in 10.0 mi Calm Calm - N/A   Clear
12:16 PM 19.4 °F - 10.4 °F 68% 30.47 in 10.0 mi Calm Calm - N/A   Clear
12:36 PM 21.2 °F - 10.4 °F 63% 30.45 in 10.0 mi Calm Calm - N/A   Clear
12:56 PM 21.2 °F 16.4 °F 10.4 °F 63% 30.44 in 10.0 mi SE 3.5 mph - N/A   Clear
1:16 PM 21.2 °F 16.4 °F 10.4 °F 63% 30.44 in 10.0 mi SSE 3.5 mph - N/A   Clear
1:36 PM 21.2 °F - 10.4 °F 63% 30.42 in 10.0 mi Calm Calm - N/A   Clear
1:56 PM 23.0 °F 17.0 °F 10.4 °F 59% 30.42 in 10.0 mi SSE 4.6 mph - N/A   Clear
2:16 PM 23.0 °F 17.0 °F 10.4 °F 59% 30.41 in 10.0 mi SE 4.6 mph - N/A   Clear
2:36 PM 23.0 °F - 12.2 °F 63% 30.41 in 10.0 mi Calm Calm - N/A   Clear
2:56 PM 24.8 °F 20.5 °F 12.2 °F 59% 30.41 in 10.0 mi South 3.5 mph - N/A   Clear
3:16 PM 24.8 °F - 14.0 °F 64% 30.41 in 10.0 mi Calm Calm - N/A   Clear
3:36 PM 24.8 °F 19.1 °F 14.0 °F 64% 30.40 in 10.0 mi SSE 4.6 mph - N/A   Clear
3:56 PM 26.6 °F 20.0 °F 12.2 °F 55% 30.38 in 10.0 mi SE 5.8 mph - N/A   Clear
4:16 PM 24.8 °F 16.9 °F 14.0 °F 64% 30.38 in 10.0 mi SE 6.9 mph - N/A   Clear
4:36 PM 24.8 °F 19.1 °F 14.0 °F 64% 30.38 in 10.0 mi SE 4.6 mph - N/A   Clear
4:56 PM 23.0 °F - 14.0 °F 68% 30.38 in 10.0 mi Calm Calm - N/A   Clear
5:16 PM 21.2 °F - 12.2 °F 68% 30.37 in 10.0 mi Calm Calm - N/A   Clear
5:36 PM 19.4 °F - 12.2 °F 74% 30.37 in 10.0 mi Calm Calm - N/A   Clear
5:56 PM 21.2 °F - 14.0 °F 74% 30.36 in 10.0 mi Calm Calm - N/A   Clear
6:16 PM 21.2 °F - 14.0 °F 74% 30.36 in 10.0 mi Calm Calm - N/A   Clear
6:36 PM 19.4 °F - 14.0 °F 80% 30.35 in 10.0 mi Calm Calm - N/A   Clear
6:56 PM 17.6 °F - 14.0 °F 86% 30.35 in 10.0 mi Calm Calm - N/A   Clear
7:16 PM 17.6 °F - 14.0 °F 86% 30.35 in 10.0 mi Calm Calm - N/A   Clear
7:36 PM 17.6 °F - 14.0 °F 86% 30.34 in 10.0 mi Calm Calm - N/A   Clear
7:56 PM 17.6 °F - 14.0 °F 86% 30.34 in 10.0 mi Calm Calm - N/A   Clear
8:16 PM 17.6 °F - 14.0 °F 86% 30.33 in 10.0 mi Calm Calm - N/A   Clear
8:36 PM 19.4 °F - 15.8 °F 86% 30.33 in 10.0 mi Calm Calm - N/A   Clear
8:56 PM 17.6 °F - 14.0 °F 86% 30.32 in 10.0 mi Calm Calm - N/A   Clear
9:16 PM 14.0 °F - 14.0 °F 100% 30.31 in 7.0 mi Calm Calm - N/A   Clear
9:36 PM 17.6 °F - 15.8 °F 93% 30.31 in 7.0 mi Calm Calm - N/A   Clear
9:56 PM 17.6 °F - 15.8 °F 93% 30.30 in 7.0 mi Calm Calm - N/A   Clear
10:16 PM 17.6 °F - 15.8 °F 93% 30.29 in 7.0 mi Calm Calm - N/A   Clear
10:36 PM 17.6 °F - 15.8 °F 93% 30.28 in 7.0 mi Calm Calm - N/A   Clear
10:56 PM 17.6 °F - 15.8 °F 93% 30.28 in 10.0 mi Calm Calm - N/A   Clear
11:16 PM 15.8 °F - 14.0 °F 93% 30.26 in 10.0 mi Calm Calm - N/A   Clear
11:36 PM 15.8 °F - 14.0 °F 93% 30.26 in 7.0 mi Calm Calm - N/A   Clear
11:56 PM 15.8 °F - 14.0 °F 93% 30.25 in 7.0 mi Calm Calm - N/A   Clear